Regional Weather Roundup
Issued by NWS Albany, NY

Home | Current Version | Previous Version | Graphics & Text | Print | Product List | Glossary Off
Versions: 1 2 3 4 5 6 7 8 9 10 11 12 13 14 15 16 17 18 19 20 21 22 23 24 25 26 27 28

000
ASUS41 KALY 240310
RWRALY

NEW YORK STATE HOURLY WEATHER ROUNDUP
NATIONAL WEATHER SERVICE ALBANY NY
1100 PM EDT FRI SEP 23 2016

NOTE: "FAIR" INDICATES FEW OR NO CLOUDS BELOW 12,000 FEET WITH NO
SIGNIFICANT WEATHER AND/OR NO OBSTRUCTIONS TO VISIBILITY.

NYZ032-033-038>043-046>054-057>066-NYZ062>081-082-084-240400-
EAST


CITY           SKY/WX    TMP DP  RH WIND       PRES   REMARKS
ALBANY         CLOUDY    56  50  80 N10       30.11R
GLENS FALLS    CLOUDY    56  45  66 N10       30.13R
POUGHKEEPSIE   CLOUDY    59  51  75 N7        30.06R
NEWBURGH       MOCLDY    61  54  77 NE9       30.07R
MONTGOMERY     CLOUDY    61  52  72 NE12      30.06R
WHITE PLAINS   CLOUDY    70  61  73 N12       29.99R
ISLIP          MOCLDY    71  69  93 SW3       29.97R
NEW YORK CITY  CLOUDY    78  64  61 N8        29.96R
CENTRAL PARK   CLOUDY    77  63  61 N7        30.00R
$$

NYZ005>009-017-018-044>046-055-056-240400-
CENTRAL


CITY           SKY/WX    TMP DP  RH WIND       PRES   REMARKS
FULTON         CLEAR     53  48  83 NE5       30.17R
SYRACUSE       PTCLDY    53  49  86 N8        30.16R
ROME           PTCLDY    56  46  69 CALM      30.16R
ELMIRA         CLOUDY    59  50  72 N9        30.13R
BINGHAMTON     CLOUDY    55  54  96 NW8       30.11R FOG
MONTICELLO     CLOUDY    64  61  88 E5        30.07R
$$

NYZ026>034-041>043-087-240400-
NORTH


CITY           SKY/WX    TMP DP  RH WIND       PRES   REMARKS
WATERTOWN      CLEAR     45  43  93 NE3       30.18R FOG
FORT DRUM      NOT AVBL
OGDENSBURG     FAIR      53  47  82 N6        30.17S
MASSENA        MOCLDY    54  43  66 N7        30.17R
SARANAC LAKE   MOCLDY    41  40  96 CALM      30.15R
PLATTSBURGH    CLOUDY    52  49  89 CALM      30.15R
$$

NYZ001>004-010>016-019>021-085-240400-
WEST


CITY           SKY/WX    TMP DP  RH WIND       PRES   REMARKS
NIAGARA FALLS  CLOUDY    60  52  74 E6        30.17R
BUFFALO        MOCLDY    58  53  84 NE7       30.16R
DUNKIRK        CLOUDY    59  55  87 NE16      30.15R
JAMESTOWN      CLOUDY    57  54  88 NE7       30.13R
WELLSVILLE     FOG       55  54  94 NE7       30.16S VSB 1/4
ROCHESTER      CLOUDY    61  50  67 NE12      30.17R
PENN YAN       CLOUDY    57  46  66 VRB6      30.17R
$$

             KEY
       WCI = WIND CHILL INDEX
       VSB = VISIBILITY
       HX  = HEAT INDEX
$$




USA.gov is the U.S. government's official web portal to all federal, state and local government web resources and services.